DRAGON CRS-16 DEB

Last updated on Wed Dec 12 2018 00:02:05 GMT+0000 (Coordinated Universal Time)

1 43828U 18101B 18345.16062425 .14738656 12343-4 14256-2 0 9990 2 43828 51.5884 215.0437 0015669 84.2141 276.3851 16.37081580 873

Satellite not in orbit

DRAGON CRS-16 DEB